Location: Famechon
(49.7599°N, 2.0615°E)
Time: 14:11:24
(UTC+00:00)

Cosmos 1943 Rocket - Pass Details

Date: 03 February 2023
Orbit: 811 x 844 km, 71.0° (Epoch: 21 March)

Event Time Altitude Azimuth Distance (km) Brightness Sun altitude
Rises 20:34:55 0° 332° (NNW) 3,415 5.9 -36.3°
Reaches altitude 10° 20:37:25 10° 336° (NNW) 2,476 5.0 -36.6°
Enters shadow 20:39:15 21° 341° (NNW) 1,813 4.2 -36.9°
